WA1NHP Weather Reports


time (UTC)temp
C
wind
direction
speed
KPH
gust
KPH
rain 1hr
cm
rain 24hr
cm
rain mn
cm
humidity
%
barometer
mb
20260504175403 18 205 4.8 24.1 0.00 0.00 0.00 38 1023.9
20260504174404 19 239 6.4 27.4 0.00 0.00 0.00 34 1023.9
20260504173404 19 291 9.7 37.0 0.00 0.00 0.00 37 1023.9
20260504172403 20 144 9.7 32.2 0.00 0.00 0.00 40 1023.9
20260504171403 19 189 11.3 38.6 0.00 0.00 0.00 37 1023.9
20260504170404 18 219 1.6 41.8 0.00 0.00 0.00 36 1023.9
20260504160404 17 211 12.9 37.0 0.00 0.00 0.00 38 1023.9
20260504150404 16 214 14.5 27.4 0.00 0.00 0.00 43 1023.9
20260504140404 15 222 9.7 22.5 0.00 0.00 0.00 47 1023.9
20260504130403 12 219 9.7 22.5 0.00 0.00 0.00 52 1023.9
20260504110403 6 227 4.8 12.9 0.00 0.00 0.00 68 1023.9
20260504100403 3 209 3.2 8.0 0.00 0.00 0.00 78 1023.9
20260504081404 6 205 1.6 8.0 0.00 0.00 0.00 73 1023.9
20260504080404 6 203 0.0 4.8 0.00 0.00 0.00 71 1023.9
20260504070404 5 234 0.0 8.0 0.00 0.00 0.00 73 1023.9
20260504050404 3 240 0.0 4.8 0.00 0.00 0.00 71 1023.9
20260504045403 3 239 0.0 4.8 0.00 0.00 0.00 70 1023.9
20260504044403 3 238 0.0 0.0 0.00 0.00 0.00 74 1023.9
20260504043403 2 238 0.0 0.0 0.00 0.00 0.00 74 1023.9
20260504042404 2 238 0.0 0.0 0.00 0.00 0.00 73 1023.9
20260504041404 2 238 0.0 0.0 0.00 0.00 0.00 73 1023.9
20260504040404 2 238 0.0 0.0 0.00 0.00 0.00 75 1023.9
20260504035404 2 238 0.0 0.0 0.00 0.00 0.00 77 1023.9
20260504034403 1 238 0.0 0.0 0.00 0.00 0.00 75 1023.9
20260504033403 1 238 0.0 0.0 0.00 0.00 0.00 74 1023.9
20260504032404 1 238 0.0 0.0 0.00 0.00 0.00 77 1023.9
20260504031404 1 238 0.0 0.0 0.00 0.00 0.00 76 1023.9
20260504030404 1 238 0.0 0.0 0.00 0.00 0.00 75 1023.9
20260504025404 1 238 0.0 0.0 0.00 0.00 0.00 77 1023.9
20260504024404 1 238 0.0 0.0 0.00 0.00 0.00 76 1023.9
20260504023403 1 238 0.0 0.0 0.00 0.00 0.00 74 1023.9
20260504022404 1 238 0.0 0.0 0.00 0.00 0.00 74 1023.9
20260504021403 1 238 0.0 0.0 0.00 0.00 0.00 75 1023.9
20260504020404 1 238 0.0 0.0 0.00 0.00 0.00 74 1023.9
20260504015404 1 238 0.0 0.0 0.00 0.00 0.00 73 1023.9
20260504014404 1 238 0.0 0.0 0.00 0.00 0.00 72 1023.9
20260504013404 2 238 0.0 0.0 0.00 0.00 0.00 72 1023.9
20260504012403 2 238 0.0 0.0 0.00 0.00 0.00 70 1023.9
20260504011403 2 238 0.0 0.0 0.00 0.00 0.00 70 1023.9
20260504010405 2 238 0.0 0.0 0.00 0.00 0.00 71 1023.9
20260504005403 3 238 0.0 0.0 0.00 0.00 0.00 69 1023.9
20260504004404 3 238 0.0 0.0 0.00 0.00 0.00 69 1023.9
20260504003404 3 238 0.0 0.0 0.00 0.00 0.00 65 1023.9
20260504002404 4 238 0.0 0.0 0.00 0.00 0.00 63 1023.9
20260504001404 5 238 0.0 0.0 0.00 0.00 0.00 64 1023.9
20260504000404 5 238 0.0 0.0 0.00 0.00 0.00 60 1023.9
20260503235404 6 238 0.0 0.0 0.00 0.00 0.00 52 1023.9
20260503234404 6 238 0.0 0.0 0.00 0.00 0.00 51 1023.9
20260503233404 7 238 0.0 0.0 0.00 0.00 0.00 51 1023.9
20260503232404 7 238 0.0 8.0 0.00 0.00 0.00 49 1023.9
20260503231404 8 256 3.2 12.9 0.00 0.00 0.00 46 1023.9
20260503230404 8 321 3.2 20.9 0.00 0.00 0.00 45 1023.9
20260503225404 8 285 4.8 20.9 0.00 0.00 0.00 45 1023.9
20260503224404 8 311 3.2 22.5 0.00 0.00 0.00 44 1023.9
20260503223404 8 302 9.7 19.3 0.00 0.00 0.00 44 1023.9
20260503222404 8 325 3.2 24.1 0.00 0.00 0.00 44 1023.9
20260503221403 9 281 1.6 19.3 0.00 0.00 0.00 45 1023.9
20260503220404 8 296 9.7 14.5 0.00 0.00 0.00 44 1023.9
20260503215404 8 299 8.0 19.3 0.00 0.00 0.00 44 1023.9
20260503214404 9 328 1.6 12.9 0.00 0.00 0.00 43 1023.9
20260503213403 8 295 3.2 19.3 0.00 0.00 0.00 45 1023.9
20260503212403 9 306 4.8 19.3 0.00 0.00 0.00 45 1023.9
20260503211403 9 245 1.6 24.1 0.00 0.00 0.00 44 1023.9
20260503210404 9 293 4.8 20.9 0.00 0.00 0.00 43 1023.9
20260503205403 9 13 8.0 16.1 0.00 0.00 0.00 44 1023.9
20260503204404 8 331 0.0 19.3 0.00 0.00 0.00 45 1023.9
20260503203404 9 296 3.2 25.7 0.00 0.00 0.00 44 1023.9
20260503202403 9 281 9.7 33.8 0.00 0.00 0.00 44 1023.9
20260503201403 8 320 3.2 32.2 0.00 0.00 0.00 45 1023.9
20260503200403 8 319 4.8 20.9 0.00 0.00 0.00 45 1023.9
20260503195403 8 267 4.8 38.6 0.00 0.00 0.00 45 1023.9
20260503194404 8 315 11.3 33.8 0.00 0.00 0.00 45 1023.9
20260503193404 8 329 8.0 27.4 0.00 0.00 0.00 46 1023.9
20260503192403 8 287 4.8 27.4 0.00 0.00 0.00 47 1023.9
20260503191404 9 295 4.8 19.3 0.00 0.00 0.00 45 1023.9
20260503190404 10 268 1.6 46.7 0.00 0.00 0.00 46 1023.9
20260503185404 10 335 3.2 29.0 0.00 0.00 0.00 43 1023.9
20260503184404 11 297 9.7 32.2 0.00 0.00 0.00 42 1023.9
20260503183404 10 305 8.0 27.4 0.00 0.00 0.00 45 1023.9
20260503182404 9 307 3.2 27.4 0.00 0.00 0.00 51 1023.9
20260503181403 8 350 4.8 20.9 0.00 0.00 0.00 49 1023.9
20260503180404 8 321 4.8 20.9 0.00 0.00 0.00 48 1023.9